START_TIME,STEP,MOV.,M35,t_acc.,PL05,t_acc.,PL06,t_acc.,PL07,t_acc.
1980-11-15 12:00:12.490 ,0,0,0.,4.8,2.,4.8,0.,4.8,0.,4.8
1980-11-15 12:00:17.290 ,0,0,0.,4.8,0.,4.8,0.,4.8,0.,4.8
1980-11-15 12:00:22.090 ,0,0,0.,4.8,0.,4.8,0.,4.8,0.,4.8
1980-11-15 12:00:26.890 ,0,0,0.,4.8,3.,4.8,1.,4.8,0.,4.8
1980-11-15 12:00:31.690 ,0,0,0.,4.8,1.,4.8,1.,4.8,0.,4.8
1980-11-15 12:00:36.490 ,0,0,0.,4.8,2.,4.8,0.,4.8,0.,4.8
1980-11-15 12:00:41.290 ,0,0,0.,4.8,0.,4.8,0.,4.8,0.,4.8
1980-11-15 12:00:46.090 ,0,0,0.,4.8,0.,4.8,0.,4.8,1.,4.8
1980-11-15 12:00:50.890 ,0,0,0.,4.8,0.,4.8,0.,4.8,1.,4.8
1980-11-15 12:00:55.690 ,0,0,0.,4.8,0.,4.8,2.,4.8,0.,4.8
1980-11-15 12:01:00.490 ,0,0,0.,4.8,0.,4.8,0.,4.8,0.,4.8
1980-11-15 12:01:05.290 ,0,0,0.,4.8,0.,4.8,0.,4.8,0.,4.8
1980-11-15 12:01:10.090 ,0,0,0.,4.8,1.,4.8,1.,4.8,0.,4.8
1980-11-15 12:01:14.890 ,0,0,0.,4.8,0.,4.8,1.,4.8,0.,4.8
1980-11-15 12:01:19.690 ,0,0,0.,4.8,1.,4.8,0.,4.8,0.,4.8
1980-11-15 12:03:00.490 ,0,0,0.,4.8,1.,4.8,0.,4.8,0.,4.8
1980-11-15 12:03:05.290 ,0,0,0.,4.8,1.,4.8,0.,4.8,0.,4.8
1980-11-15 12:03:10.090 ,0,0,0.,4.8,1.,4.8,0.,4.8,0.,4.8
1980-11-15 12:03:14.890 ,0,0,0.,4.8,0.,4.8,1.,4.8,0.,4.8
1980-11-15 12:03:19.690 ,0,0,0.,4.8,1.,4.8,0.,4.8,0.,4.8
1980-11-15 12:03:24.490 ,0,0,0.,4.8,0.,4.8,0.,4.8,0.,4.8
1980-11-15 12:03:29.290 ,0,0,0.,4.8,0.,4.8,0.,4.8,0.,4.8
1980-11-15 12:03:34.090 ,0,0,0.,4.8,2.,4.8,0.,4.8,0.,4.8
1980-11-15 12:03:38.890 ,0,0,0.,4.8,0.,4.8,2.,4.8,0.,4.8
1980-11-15 12:03:43.690 ,0,0,0.,4.8,0.,4.8,0.,4.8,0.,4.8
1980-11-15 12:03:48.490 ,4,0,0.,4.8,1.,4.8,0.,4.8,0.,4.8
1980-11-15 12:03:53.290 ,4,0,0.,4.8,0.,4.8,0.,4.8,0.,4.8
1980-11-15 12:03:58.090 ,4,0,0.,4.8,1.,4.8,0.,4.8,0.,4.8
1980-11-15 12:04:02.890 ,4,0,0.,4.8,0.,4.8,0.,4.8,0.,4.8
1980-11-15 12:04:07.690 ,4,0,0.,4.8,0.,4.8,0.,4.8,1.,4.8
1980-11-15 12:04:12.490 ,4,0,0.,4.8,1.,4.8,0.,4.8,0.,4.8
1980-11-15 12:04:17.290 ,4,0,0.,4.8,0.,4.8,0.,4.8,0.,4.8
1980-11-15 12:04:22.090 ,4,0,0.,4.8,0.,4.8,0.,4.8,0.,4.8
1980-11-15 12:04:26.890 ,4,0,0.,4.8,1.,4.8,0.,4.8,0.,4.8
1980-11-15 12:04:31.690 ,4,0,0.,4.8,0.,4.8,0.,4.8,0.,4.8
1980-11-15 12:03:00.490 ,0,0,0.,4.8,1.,4.8,0.,4.8,0.,4.8
1980-11-15 12:03:05.290 ,0,0,0.,4.8,1.,4.8,0.,4.8,0.,4.8
1980-11-15 12:03:10.090 ,0,0,0.,4.8,1.,4.8,0.,4.8,0.,4.8
1980-11-15 12:03:14.890 ,0,0,0.,4.8,0.,4.8,1.,4.8,0.,4.8
1980-11-15 12:03:19.690 ,0,0,0.,4.8,1.,4.8,0.,4.8,0.,4.8
1980-11-15 12:03:24.490 ,0,0,0.,4.8,0.,4.8,0.,4.8,0.,4.8
1980-11-15 12:03:29.290 ,0,0,0.,4.8,0.,4.8,0.,4.8,0.,4.8
1980-11-15 12:03:34.090 ,0,0,0.,4.8,2.,4.8,0.,4.8,0.,4.8
1980-11-15 12:03:38.890 ,0,0,0.,4.8,0.,4.8,2.,4.8,0.,4.8
1980-11-15 12:03:43.690 ,0,0,0.,4.8,0.,4.8,0.,4.8,0.,4.8
1980-11-15 12:03:48.490 ,4,0,0.,4.8,1.,4.8,0.,4.8,0.,4.8
1980-11-15 12:03:53.290 ,4,0,0.,4.8,0.,4.8,0.,4.8,0.,4.8
1980-11-15 12:03:58.090 ,4,0,0.,4.8,1.,4.8,0.,4.8,0.,4.8
1980-11-15 12:04:02.890 ,4,0,0.,4.8,0.,4.8,0.,4.8,0.,4.8
1980-11-15 12:04:07.690 ,4,0,0.,4.8,0.,4.8,0.,4.8,1.,4.8
1980-11-15 12:04:12.490 ,4,0,0.,4.8,1.,4.8,0.,4.8,0.,4.8
1980-11-15 12:04:17.290 ,4,0,0.,4.8,0.,4.8,0.,4.8,0.,4.8
1980-11-15 12:04:22.090 ,4,0,0.,4.8,0.,4.8,0.,4.8,0.,4.8
1980-11-15 12:04:26.890 ,4,0,0.,4.8,1.,4.8,0.,4.8,0.,4.8
1980-11-15 12:04:31.690 ,4,0,0.,4.8,0.,4.8,0.,4.8,0.,4.8
1980-11-15 12:03:24.490 ,0,0,0.,4.8,0.,4.8,0.,4.8,0.,4.8
1980-11-15 12:03:29.290 ,0,0,0.,4.8,0.,4.8,0.,4.8,0.,4.8
1980-11-15 12:03:34.090 ,0,0,0.,4.8,2.,4.8,0.,4.8,0.,4.8
1980-11-15 12:03:38.890 ,0,0,0.,4.8,0.,4.8,2.,4.8,0.,4.8
1980-11-15 12:03:43.690 ,0,0,0.,4.8,0.,4.8,0.,4.8,0.,4.8
1980-11-15 12:03:48.490 ,4,0,0.,4.8,1.,4.8,0.,4.8,0.,4.8
1980-11-15 12:03:53.290 ,4,0,0.,4.8,0.,4.8,0.,4.8,0.,4.8
1980-11-15 12:03:58.090 ,4,0,0.,4.8,1.,4.8,0.,4.8,0.,4.8
1980-11-15 12:04:02.890 ,4,0,0.,4.8,0.,4.8,0.,4.8,0.,4.8
1980-11-15 12:04:07.690 ,4,0,0.,4.8,0.,4.8,0.,4.8,1.,4.8
1980-11-15 12:04:12.490 ,4,0,0.,4.8,1.,4.8,0.,4.8,0.,4.8
1980-11-15 12:04:17.290 ,4,0,0.,4.8,0.,4.8,0.,4.8,0.,4.8
1980-11-15 12:04:22.090 ,4,0,0.,4.8,0.,4.8,0.,4.8,0.,4.8
1980-11-15 12:04:26.890 ,4,0,0.,4.8,1.,4.8,0.,4.8,0.,4.8
1980-11-15 12:04:31.690 ,4,0,0.,4.8,0.,4.8,0.,4.8,0.,4.8
1980-11-15 12:13:24.490 ,0,0,0.,4.8,1.,4.8,0.,4.8,0.,4.8
1980-11-15 12:13:29.290 ,0,0,0.,4.8,2.,4.8,1.,4.8,0.,4.8
1980-11-15 12:13:34.090 ,0,0,0.,4.8,0.,4.8,0.,4.8,0.,4.8
1980-11-15 12:13:38.890 ,0,0,0.,4.8,1.,4.8,0.,4.8,0.,4.8
1980-11-15 12:13:43.690 ,0,0,0.,4.8,0.,4.8,1.,4.8,0.,4.8
1980-11-15 12:13:48.490 ,0,0,0.,4.8,0.,4.8,1.,4.8,0.,4.8
1980-11-15 12:13:53.290 ,0,0,0.,4.8,0.,4.8,0.,4.8,2.,4.8
1980-11-15 12:13:58.090 ,0,0,0.,4.8,1.,4.8,0.,4.8,0.,4.8
1980-11-15 12:14:02.890 ,0,0,0.,4.8,0.,4.8,0.,4.8,0.,4.8
1980-11-15 12:14:07.690 ,0,0,0.,4.8,0.,4.8,0.,4.8,0.,4.8
1980-11-15 12:14:12.490 ,1,0,0.,4.8,0.,4.8,0.,4.8,0.,4.8
1980-11-15 12:14:17.290 ,1,0,0.,4.8,1.,4.8,1.,4.8,1.,4.8
1980-11-15 12:14:22.090 ,1,0,0.,4.8,0.,4.8,1.,4.8,0.,4.8
1980-11-15 12:14:26.890 ,1,0,0.,4.8,0.,4.8,0.,4.8,0.,4.8
1980-11-15 12:14:31.690 ,1,0,0.,4.8,0.,4.8,0.,4.8,0.,4.8
1980-11-15 12:14:36.490 ,1,0,0.,4.8,0.,4.8,3.,4.8,0.,4.8
1980-11-15 12:14:41.290 ,1,0,0.,4.8,0.,4.8,0.,4.8,0.,4.8
1980-11-15 12:14:46.090 ,1,0,0.,4.8,0.,4.8,1.,4.8,0.,4.8
1980-11-15 12:14:50.890 ,1,0,0.,4.8,0.,4.8,0.,4.8,0.,4.8
1980-11-15 12:14:55.690 ,1,0,0.,4.8,2.,4.8,0.,4.8,0.,4.8
1980-11-15 12:15:00.490 ,2,0,0.,4.8,0.,4.8,1.,4.8,0.,4.8
1980-11-15 12:15:05.290 ,2,0,0.,4.8,1.,4.8,0.,4.8,0.,4.8
1980-11-15 12:15:10.090 ,2,0,0.,4.8,0.,4.8,0.,4.8,0.,4.8
1980-11-15 12:15:14.890 ,2,0,0.,4.8,0.,4.8,2.,4.8,0.,4.8
1980-11-15 12:15:19.690 ,2,0,0.,4.8,0.,4.8,0.,4.8,0.,4.8
1980-11-15 12:15:24.490 ,2,0,0.,4.8,2.,4.8,0.,4.8,0.,4.8
1980-11-15 12:15:29.290 ,2,0,0.,4.8,0.,4.8,0.,4.8,0.,4.8
1980-11-15 12:15:34.090 ,2,0,0.,4.8,0.,4.8,1.,4.8,0.,4.8
1980-11-15 12:15:38.890 ,2,0,0.,4.8,1.,4.8,1.,4.8,1.,4.8
1980-11-15 12:15:43.690 ,2,0,0.,4.8,1.,4.8,0.,4.8,1.,4.8
1980-11-15 12:15:48.490 ,3,0,0.,4.8,0.,4.8,0.,4.8,0.,4.8
1980-11-15 12:15:53.290 ,3,0,0.,4.8,1.,4.8,0.,4.8,0.,4.8
1980-11-15 12:15:58.090 ,3,0,0.,4.8,0.,4.8,0.,4.8,0.,4.8
1980-11-15 12:16:02.890 ,3,0,0.,4.8,0.,4.8,0.,4.8,1.,4.8
1980-11-15 12:16:07.690 ,3,0,0.,4.8,2.,4.8,0.,4.8,0.,4.8
1980-11-15 12:16:12.490 ,3,0,0.,4.8,0.,4.8,0.,4.8,0.,4.8
1980-11-15 12:16:17.290 ,3,0,0.,4.8,1.,4.8,0.,4.8,0.,4.8
1980-11-15 12:16:22.090 ,3,0,0.,4.8,0.,4.8,0.,4.8,0.,4.8
1980-11-15 12:16:26.890 ,3,0,0.,4.8,2.,4.8,0.,4.8,0.,4.8
1980-11-15 12:16:31.690 ,3,0,0.,4.8,2.,4.8,0.,4.8,0.,4.8
1980-11-15 12:16:36.490 ,4,0,0.,4.8,2.,4.8,0.,4.8,0.,4.8
1980-11-15 12:16:41.290 ,4,0,0.,4.8,0.,4.8,0.,4.8,0.,4.8
1980-11-15 12:16:46.090 ,4,0,0.,4.8,0.,4.8,0.,4.8,0.,4.8
1980-11-15 12:16:50.890 ,4,0,0.,4.8,1.,4.8,0.,4.8,0.,4.8
1980-11-15 12:16:55.690 ,4,0,0.,4.8,1.,4.8,0.,4.8,0.,4.8
1980-11-15 12:17:00.490 ,4,0,0.,4.8,0.,4.8,0.,4.8,0.,4.8
1980-11-15 12:17:05.290 ,4,0,0.,4.8,0.,4.8,0.,4.8,0.,4.8
1980-11-15 12:17:10.090 ,4,0,0.,4.8,0.,4.8,0.,4.8,1.,4.8
1980-11-15 12:17:14.890 ,4,0,0.,4.8,0.,4.8,0.,4.8,0.,4.8
1980-11-15 12:17:19.690 ,4,0,0.,4.8,0.,4.8,0.,4.8,0.,4.8
1980-11-15 12:17:24.490 ,5,0,0.,4.8,0.,4.8,1.,4.8,0.,4.8
1980-11-15 12:17:29.290 ,5,0,0.,4.8,2.,4.8,0.,4.8,0.,4.8
1980-11-15 12:17:34.090 ,5,0,0.,4.8,1.,4.8,0.,4.8,1.,4.8
1980-11-15 12:17:38.890 ,5,0,0.,4.8,0.,4.8,0.,4.8,0.,4.8
1980-11-15 12:17:43.690 ,5,0,0.,4.8,0.,4.8,0.,4.8,0.,4.8
1980-11-15 12:17:48.490 ,5,0,0.,4.8,0.,4.8,0.,4.8,0.,4.8
1980-11-15 12:17:53.290 ,5,0,0.,4.8,0.,4.8,0.,4.8,0.,4.8
1980-11-15 12:17:58.090 ,5,0,0.,4.8,0.,4.8,1.,4.8,0.,4.8
1980-11-15 12:18:02.890 ,5,0,0.,4.8,3.,4.8,0.,4.8,0.,4.8
1980-11-15 12:18:07.690 ,5,0,0.,4.8,1.,4.8,0.,4.8,0.,4.8
1980-11-15 12:18:12.490 ,6,0,0.,4.8,0.,4.8,0.,4.8,1.,4.8
1980-11-15 12:18:17.290 ,6,0,0.,4.8,0.,4.8,0.,4.8,0.,4.8
1980-11-15 12:18:22.090 ,6,0,0.,4.8,0.,4.8,0.,4.8,0.,4.8
1980-11-15 12:18:26.890 ,6,0,0.,4.8,0.,4.8,0.,4.8,0.,4.8
1980-11-15 12:18:31.690 ,6,0,0.,4.8,2.,4.8,0.,4.8,0.,4.8
1980-11-15 12:18:36.490 ,6,0,0.,4.8,1.,4.8,0.,4.8,0.,4.8
1980-11-15 12:18:41.290 ,6,0,0.,4.8,0.,4.8,0.,4.8,0.,4.8
1980-11-15 12:18:46.090 ,6,0,0.,4.8,1.,4.8,0.,4.8,1.,4.8
1980-11-15 12:18:50.890 ,6,0,0.,4.8,0.,4.8,0.,4.8,0.,4.8
1980-11-15 12:18:55.690 ,6,0,0.,4.8,0.,4.8,1.,4.8,0.,4.8
1980-11-15 12:19:00.490 ,7,0,0.,4.8,0.,4.8,0.,4.8,0.,4.8
1980-11-15 12:19:05.290 ,7,0,0.,4.8,1.,4.8,0.,4.8,0.,4.8
1980-11-15 12:19:10.090 ,7,0,0.,4.8,0.,4.8,1.,4.8,0.,4.8
1980-11-15 12:19:14.890 ,7,0,0.,4.8,0.,4.8,0.,4.8,0.,4.8
1980-11-15 12:19:19.690 ,7,0,0.,4.8,0.,4.8,0.,4.8,0.,4.8
1980-11-15 12:19:24.490 ,7,0,0.,4.8,0.,4.8,3.,4.8,0.,4.8
1980-11-15 12:19:29.290 ,7,0,0.,4.8,0.,4.8,0.,4.8,0.,4.8
1980-11-15 12:19:34.090 ,7,0,0.,4.8,1.,4.8,0.,4.8,0.,4.8
1980-11-15 12:19:38.890 ,7,0,0.,4.8,0.,4.8,1.,4.8,0.,4.8
1980-11-15 12:19:43.690 ,7,0,0.,4.8,0.,4.8,0.,4.8,0.,4.8
1980-11-15 12:19:48.490 ,7,0,0.,4.8,0.,4.8,1.,4.8,0.,4.8
1980-11-15 12:19:53.290 ,7,0,0.,4.8,0.,4.8,0.,4.8,1.,4.8
1980-11-15 12:19:58.090 ,7,0,0.,4.8,2.,4.8,0.,4.8,0.,4.8
1980-11-15 12:20:02.890 ,7,0,0.,4.8,0.,4.8,1.,4.8,0.,4.8
1980-11-15 12:20:07.690 ,7,0,0.,4.8,0.,4.8,1.,4.8,0.,4.8
1980-11-15 12:20:12.490 ,7,0,0.,4.8,0.,4.8,0.,4.8,0.,4.8
1980-11-15 12:20:17.290 ,7,0,0.,4.8,0.,4.8,0.,4.8,0.,4.8
1980-11-15 12:20:22.090 ,7,0,0.,4.8,0.,4.8,0.,4.8,0.,4.8
1980-11-15 12:20:26.890 ,7,0,0.,4.8,0.,4.8,0.,4.8,0.,4.8
1980-11-15 12:20:31.690 ,7,0,0.,4.8,0.,4.8,0.,4.8,0.,4.8
1980-11-15 12:20:36.490 ,6,0,0.,4.8,0.,4.8,2.,4.8,0.,4.8
1980-11-15 12:20:41.290 ,6,0,0.,4.8,0.,4.8,1.,4.8,1.,4.8
1980-11-15 12:20:46.090 ,6,0,0.,4.8,0.,4.8,0.,4.8,0.,4.8
1980-11-15 12:20:50.890 ,6,0,0.,4.8,1.,4.8,0.,4.8,0.,4.8
1980-11-15 12:20:55.690 ,6,0,0.,4.8,1.,4.8,0.,4.8,1.,4.8
1980-11-15 12:21:00.490 ,6,0,0.,4.8,0.,4.8,0.,4.8,1.,4.8
1980-11-15 12:21:05.290 ,6,0,0.,4.8,1.,4.8,0.,4.8,0.,4.8
1980-11-15 12:21:10.090 ,6,0,0.,4.8,0.,4.8,0.,4.8,0.,4.8
1980-11-15 12:21:14.890 ,6,0,0.,4.8,0.,4.8,2.,4.8,0.,4.8
1980-11-15 12:21:19.690 ,6,0,0.,4.8,0.,4.8,1.,4.8,1.,4.8
1980-11-15 12:21:24.490 ,5,0,0.,4.8,0.,4.8,0.,4.8,0.,4.8
1980-11-15 12:21:29.290 ,5,0,0.,4.8,0.,4.8,0.,4.8,0.,4.8
1980-11-15 12:21:34.090 ,5,0,0.,4.8,0.,4.8,0.,4.8,0.,4.8
1980-11-15 12:21:38.890 ,5,0,0.,4.8,1.,4.8,0.,4.8,1.,4.8
1980-11-15 12:21:43.690 ,5,0,0.,4.8,0.,4.8,1.,4.8,0.,4.8
1980-11-15 12:21:48.490 ,5,0,0.,4.8,0.,4.8,0.,4.8,0.,4.8
1980-11-15 12:21:53.290 ,5,0,0.,4.8,0.,4.8,0.,4.8,0.,4.8
1980-11-15 12:21:58.090 ,5,0,0.,4.8,0.,4.8,0.,4.8,0.,4.8
1980-11-15 12:22:02.890 ,5,0,0.,4.8,0.,4.8,0.,4.8,0.,4.8
1980-11-15 12:22:07.690 ,5,0,0.,4.8,0.,4.8,0.,4.8,0.,4.8
1980-11-15 12:22:12.490 ,4,0,0.,4.8,0.,4.8,0.,4.8,0.,4.8
1980-11-15 12:22:17.290 ,4,0,0.,4.8,0.,4.8,0.,4.8,0.,4.8
1980-11-15 12:22:22.090 ,4,0,0.,4.8,0.,4.8,1.,4.8,1.,4.8
1980-11-15 12:22:26.890 ,4,0,0.,4.8,0.,4.8,0.,4.8,0.,4.8
1980-11-15 12:22:31.690 ,4,0,0.,4.8,0.,4.8,0.,4.8,0.,4.8
1980-11-15 12:22:36.490 ,4,0,0.,4.8,0.,4.8,0.,4.8,0.,4.8
1980-11-15 12:22:41.290 ,4,0,0.,4.8,0.,4.8,1.,4.8,1.,4.8
1980-11-15 12:22:46.090 ,4,0,0.,4.8,0.,4.8,0.,4.8,1.,4.8
1980-11-15 12:22:50.890 ,4,0,0.,4.8,0.,4.8,0.,4.8,0.,4.8
1980-11-15 12:22:55.690 ,4,0,0.,4.8,1.,4.8,0.,4.8,0.,4.8
1980-11-15 12:23:00.490 ,3,0,0.,4.8,0.,4.8,0.,4.8,0.,4.8
1980-11-15 12:23:05.290 ,3,0,0.,4.8,0.,4.8,1.,4.8,0.,4.8
1980-11-15 12:23:10.090 ,3,0,0.,4.8,1.,4.8,1.,4.8,0.,4.8
1980-11-15 12:23:14.890 ,3,0,0.,4.8,1.,4.8,1.,4.8,0.,4.8
1980-11-15 12:23:19.690 ,3,0,0.,4.8,1.,4.8,0.,4.8,0.,4.8
1980-11-15 12:23:24.490 ,3,0,0.,4.8,1.,4.8,2.,4.8,0.,4.8
1980-11-15 12:23:29.290 ,3,0,0.,4.8,1.,4.8,0.,4.8,0.,4.8
1980-11-15 12:23:34.090 ,3,0,,0,,0,,0,,0
1980-11-15 12:23:38.890 ,3,0,0.,4.8,0.,4.8,1.,4.8,0.,4.8
1980-11-15 12:23:43.690 ,3,0,0.,4.8,0.,4.8,0.,4.8,0.,4.8
1980-11-15 12:23:48.490 ,2,0,0.,4.8,0.,4.8,0.,4.8,0.,4.8
1980-11-15 12:23:53.290 ,2,0,0.,4.8,1.,4.8,0.,4.8,0.,4.8
1980-11-15 12:23:58.090 ,2,0,0.,4.8,1.,4.8,0.,4.8,0.,4.8
1980-11-15 12:24:02.890 ,2,0,0.,4.8,1.,4.8,0.,4.8,0.,4.8
1980-11-15 12:24:07.690 ,2,0,0.,4.8,0.,4.8,0.,4.8,0.,4.8
1980-11-15 12:24:12.490 ,2,0,0.,4.8,0.,4.8,0.,4.8,0.,4.8
1980-11-15 12:24:17.290 ,2,0,0.,4.8,0.,4.8,0.,4.8,0.,4.8
1980-11-15 12:24:22.090 ,2,0,0.,4.8,1.,4.8,0.,4.8,0.,4.8
1980-11-15 12:24:26.890 ,2,0,0.,4.8,1.,4.8,1.,4.8,0.,4.8
1980-11-15 12:24:31.690 ,2,0,0.,4.8,1.,4.8,0.,4.8,0.,4.8
1980-11-15 12:24:36.490 ,1,0,0.,4.8,1.,4.8,2.,4.8,0.,4.8
1980-11-15 12:24:41.290 ,1,0,0.,4.8,3.,4.8,0.,4.8,0.,4.8
1980-11-15 12:24:46.090 ,1,0,0.,4.8,0.,4.8,0.,4.8,0.,4.8
1980-11-15 12:24:50.890 ,1,0,0.,4.8,3.,4.8,1.,4.8,0.,4.8
1980-11-15 12:24:55.690 ,1,0,0.,4.8,0.,4.8,0.,4.8,0.,4.8
1980-11-15 12:25:00.490 ,1,0,0.,4.8,0.,4.8,0.,4.8,0.,4.8
1980-11-15 12:25:05.290 ,1,0,0.,4.8,1.,4.8,0.,4.8,0.,4.8
1980-11-15 12:25:10.090 ,1,0,0.,4.8,2.,4.8,0.,4.8,0.,4.8
1980-11-15 12:25:14.890 ,1,0,0.,4.8,0.,4.8,0.,4.8,0.,4.8
1980-11-15 12:25:19.690 ,1,0,0.,4.8,1.,4.8,1.,4.8,0.,4.8
1980-11-15 12:25:24.490 ,0,0,0.,4.8,1.,4.8,0.,4.8,0.,4.8
1980-11-15 12:25:29.290 ,0,0,0.,4.8,0.,4.8,1.,4.8,0.,4.8
1980-11-15 12:25:34.090 ,0,0,0.,4.8,0.,4.8,0.,4.8,0.,4.8
1980-11-15 12:25:38.890 ,0,0,0.,4.8,0.,4.8,0.,4.8,1.,4.8
1980-11-15 12:25:43.690 ,0,0,0.,4.8,2.,4.8,0.,4.8,0.,4.8
1980-11-15 12:25:48.490 ,0,0,0.,4.8,0.,4.8,0.,4.8,0.,4.8
1980-11-15 12:25:53.290 ,0,0,0.,4.8,0.,4.8,1.,4.8,0.,4.8
1980-11-15 12:25:58.090 ,0,0,0.,4.8,1.,4.8,0.,4.8,0.,4.8
1980-11-15 12:26:02.890 ,0,0,0.,4.8,0.,4.8,0.,4.8,0.,4.8
1980-11-15 12:26:07.690 ,0,0,0.,4.8,0.,4.8,0.,4.8,0.,4.8
1980-11-15 12:26:12.490 ,0,0,0.,4.8,0.,4.8,0.,4.8,0.,4.8
1980-11-15 12:26:17.290 ,0,0,0.,4.8,2.,4.8,0.,4.8,0.,4.8
1980-11-15 12:26:22.090 ,0,0,0.,4.8,2.,4.8,0.,4.8,1.,4.8
1980-11-15 12:26:26.890 ,0,0,0.,4.8,0.,4.8,0.,4.8,1.,4.8
1980-11-15 12:26:31.690 ,0,0,0.,4.8,1.,4.8,0.,4.8,0.,4.8
1980-11-15 12:26:36.490 ,0,0,0.,4.8,0.,4.8,0.,4.8,0.,4.8
1980-11-15 12:26:41.290 ,0,0,0.,4.8,2.,4.8,0.,4.8,0.,4.8
1980-11-15 12:26:46.090 ,0,0,0.,4.8,0.,4.8,0.,4.8,0.,4.8
1980-11-15 12:26:50.890 ,0,0,0.,4.8,0.,4.8,0.,4.8,0.,4.8
1980-11-15 12:26:55.690 ,0,0,0.,4.8,0.,4.8,0.,4.8,0.,4.8
1980-11-15 12:27:00.490 ,1,0,0.,4.8,0.,4.8,0.,4.8,0.,4.8
1980-11-15 12:27:05.290 ,1,0,0.,4.8,0.,4.8,1.,4.8,0.,4.8
1980-11-15 12:27:10.090 ,1,0,0.,4.8,1.,4.8,0.,4.8,0.,4.8
1980-11-15 12:27:14.890 ,1,0,0.,4.8,1.,4.8,1.,4.8,0.,4.8
1980-11-15 12:27:19.690 ,1,0,0.,4.8,0.,4.8,1.,4.8,0.,4.8
1980-11-15 12:27:24.490 ,1,0,0.,4.8,1.,4.8,0.,4.8,0.,4.8
1980-11-15 12:27:29.290 ,1,0,0.,4.8,0.,4.8,0.,4.8,1.,4.8
1980-11-15 12:27:34.090 ,1,0,0.,4.8,2.,4.8,0.,4.8,0.,4.8
1980-11-15 12:27:38.890 ,1,0,0.,4.8,1.,4.8,0.,4.8,0.,4.8
1980-11-15 12:27:43.690 ,1,0,0.,4.8,3.,4.8,0.,4.8,0.,4.8
1980-11-15 12:27:48.490 ,2,0,0.,4.8,0.,4.8,0.,4.8,0.,4.8
1980-11-15 12:27:53.290 ,2,0,0.,4.8,0.,4.8,1.,4.8,0.,4.8
1980-11-15 12:27:58.090 ,2,0,0.,4.8,0.,4.8,0.,4.8,0.,4.8
1980-11-15 12:28:02.890 ,2,0,0.,4.8,1.,4.8,1.,4.8,0.,4.8
1980-11-15 12:28:07.690 ,2,0,0.,4.8,0.,4.8,1.,4.8,0.,4.8
1980-11-15 12:28:12.490 ,2,0,0.,4.8,1.,4.8,1.,4.8,0.,4.8
1980-11-15 12:28:17.290 ,2,0,0.,4.8,0.,4.8,0.,4.8,0.,4.8
1980-11-15 12:28:22.090 ,2,0,0.,4.8,0.,4.8,0.,4.8,1.,4.8
1980-11-15 12:28:26.890 ,2,0,0.,4.8,1.,4.8,0.,4.8,0.,4.8
1980-11-15 12:28:31.690 ,2,0,0.,4.8,0.,4.8,1.,4.8,0.,4.8
1980-11-15 12:28:36.490 ,3,0,0.,4.8,0.,4.8,0.,4.8,0.,4.8
1980-11-15 12:28:41.290 ,3,0,0.,4.8,2.,4.8,0.,4.8,1.,4.8
1980-11-15 12:28:46.090 ,3,0,0.,4.8,0.,4.8,0.,4.8,0.,4.8
1980-11-15 12:28:50.890 ,3,0,0.,4.8,1.,4.8,0.,4.8,0.,4.8
1980-11-15 12:28:55.690 ,3,0,0.,4.8,0.,4.8,1.,4.8,0.,4.8
1980-11-15 12:29:00.490 ,3,0,0.,4.8,1.,4.8,0.,4.8,0.,4.8
1980-11-15 12:29:05.290 ,3,0,0.,4.8,0.,4.8,0.,4.8,0.,4.8
1980-11-15 12:29:10.090 ,3,0,0.,4.8,1.,4.8,0.,4.8,0.,4.8
1980-11-15 12:29:14.890 ,3,0,0.,4.8,0.,4.8,0.,4.8,0.,4.8
1980-11-15 12:29:19.690 ,3,0,0.,4.8,0.,4.8,1.,4.8,0.,4.8
1980-11-15 12:29:24.490 ,4,0,0.,4.8,1.,4.8,0.,4.8,0.,4.8
1980-11-15 12:29:29.290 ,4,0,0.,4.8,2.,4.8,1.,4.8,0.,4.8
1980-11-15 12:29:34.090 ,4,0,0.,4.8,1.,4.8,0.,4.8,0.,4.8
1980-11-15 12:29:38.890 ,4,0,0.,4.8,1.,4.8,0.,4.8,0.,4.8
1980-11-15 12:29:43.690 ,4,0,0.,4.8,0.,4.8,0.,4.8,0.,4.8
1980-11-15 12:29:48.490 ,4,0,0.,4.8,0.,4.8,0.,4.8,0.,4.8
1980-11-15 12:29:53.290 ,4,0,0.,4.8,2.,4.8,0.,4.8,0.,4.8
1980-11-15 12:29:58.090 ,4,0,0.,4.8,1.,4.8,0.,4.8,0.,4.8
1980-11-15 12:30:02.890 ,4,0,0.,4.8,0.,4.8,0.,4.8,0.,4.8
1980-11-15 12:30:07.690 ,4,0,0.,4.8,1.,4.8,0.,4.8,0.,4.8
1980-11-15 12:30:12.490 ,5,0,0.,4.8,1.,4.8,0.,4.8,0.,4.8
1980-11-15 12:30:17.290 ,5,0,0.,4.8,1.,4.8,0.,4.8,1.,4.8
1980-11-15 12:30:22.090 ,5,0,0.,4.8,1.,4.8,1.,4.8,0.,4.8
1980-11-15 12:30:26.890 ,5,0,0.,4.8,1.,4.8,0.,4.8,0.,4.8
1980-11-15 12:30:31.690 ,5,0,0.,4.8,1.,4.8,0.,4.8,0.,4.8
1980-11-15 12:30:36.490 ,5,0,0.,4.8,0.,4.8,1.,4.8,0.,4.8
1980-11-15 12:30:41.290 ,5,0,0.,4.8,0.,4.8,0.,4.8,0.,4.8
1980-11-15 12:30:46.090 ,5,0,0.,4.8,1.,4.8,0.,4.8,0.,4.8
1980-11-15 12:30:50.890 ,5,0,0.,4.8,1.,4.8,1.,4.8,0.,4.8
1980-11-15 12:30:55.690 ,5,0,0.,4.8,1.,4.8,0.,4.8,0.,4.8
1980-11-15 12:31:00.490 ,6,0,0.,4.8,0.,4.8,0.,4.8,0.,4.8
1980-11-15 12:31:05.290 ,6,0,0.,4.8,2.,4.8,2.,4.8,0.,4.8
1980-11-15 12:31:10.090 ,6,0,0.,4.8,4.,4.8,0.,4.8,0.,4.8
1980-11-15 12:31:14.890 ,6,0,0.,4.8,0.,4.8,0.,4.8,1.,4.8
1980-11-15 12:31:19.690 ,6,0,0.,4.8,1.,4.8,1.,4.8,0.,4.8
1980-11-15 12:31:24.490 ,6,0,0.,4.8,0.,4.8,0.,4.8,0.,4.8
1980-11-15 12:31:29.290 ,6,0,0.,4.8,1.,4.8,0.,4.8,0.,4.8
1980-11-15 12:31:34.090 ,6,0,0.,4.8,0.,4.8,0.,4.8,0.,4.8
1980-11-15 12:31:38.890 ,6,0,0.,4.8,1.,4.8,0.,4.8,1.,4.8
1980-11-15 12:31:43.690 ,6,0,0.,4.8,0.,4.8,2.,4.8,0.,4.8
1980-11-15 12:31:48.490 ,7,0,0.,4.8,1.,4.8,0.,4.8,0.,4.8
1980-11-15 12:31:53.290 ,7,0,0.,4.8,0.,4.8,1.,4.8,0.,4.8
1980-11-15 12:31:58.090 ,7,0,0.,4.8,0.,4.8,0.,4.8,3.,4.8
1980-11-15 12:32:02.890 ,7,0,0.,4.8,1.,4.8,1.,4.8,0.,4.8
1980-11-15 12:32:07.690 ,7,0,0.,4.8,0.,4.8,1.,4.8,0.,4.8
1980-11-15 12:32:12.490 ,7,0,0.,4.8,0.,4.8,0.,4.8,1.,4.8
1980-11-15 12:32:17.290 ,7,0,0.,4.8,0.,4.8,0.,4.8,0.,4.8
1980-11-15 12:32:22.090 ,7,0,0.,4.8,0.,4.8,0.,4.8,0.,4.8
1980-11-15 12:32:26.890 ,7,0,0.,4.8,0.,4.8,0.,4.8,0.,4.8
1980-11-15 12:32:31.690 ,7,0,0.,4.8,0.,4.8,0.,4.8,0.,4.8
1980-11-15 12:32:36.490 ,7,0,0.,4.8,0.,4.8,0.,4.8,0.,4.8
1980-11-15 12:32:41.290 ,7,0,0.,4.8,0.,4.8,1.,4.8,0.,4.8
1980-11-15 12:32:46.090 ,7,0,0.,4.8,0.,4.8,1.,4.8,0.,4.8
1980-11-15 12:32:50.890 ,7,0,0.,4.8,0.,4.8,0.,4.8,0.,4.8
1980-11-15 12:32:55.690 ,7,0,0.,4.8,3.,4.8,2.,4.8,0.,4.8
1980-11-15 12:33:00.490 ,7,0,0.,4.8,0.,4.8,1.,4.8,1.,4.8
1980-11-15 12:33:05.290 ,7,0,0.,4.8,0.,4.8,1.,4.8,1.,4.8
1980-11-15 12:33:10.090 ,7,0,0.,4.8,0.,4.8,0.,4.8,0.,4.8
1980-11-15 12:33:14.890 ,7,0,0.,4.8,1.,4.8,0.,4.8,0.,4.8
1980-11-15 12:33:19.690 ,7,0,0.,4.8,0.,4.8,0.,4.8,0.,4.8
1980-11-15 12:33:24.490 ,6,0,0.,4.8,0.,4.8,1.,4.8,1.,4.8
1980-11-15 12:33:29.290 ,6,0,0.,4.8,0.,4.8,0.,4.8,0.,4.8
1980-11-15 12:33:34.090 ,6,0,0.,4.8,1.,4.8,0.,4.8,0.,4.8
1980-11-15 12:33:38.890 ,6,0,0.,4.8,0.,4.8,0.,4.8,0.,4.8
1980-11-15 12:33:43.690 ,6,0,0.,4.8,1.,4.8,0.,4.8,0.,4.8
1980-11-15 12:33:48.490 ,6,0,0.,4.8,1.,4.8,0.,4.8,0.,4.8
1980-11-15 12:33:53.290 ,6,0,0.,4.8,1.,4.8,0.,4.8,0.,4.8
1980-11-15 12:33:58.090 ,6,0,0.,4.8,0.,4.8,0.,4.8,0.,4.8
1980-11-15 12:34:02.890 ,6,0,0.,4.8,0.,4.8,0.,4.8,0.,4.8
1980-11-15 12:34:07.690 ,6,0,0.,4.8,0.,4.8,0.,4.8,0.,4.8
1980-11-15 12:34:12.490 ,5,0,0.,4.8,0.,4.8,0.,4.8,0.,4.8
1980-11-15 12:34:17.290 ,5,0,0.,4.8,1.,4.8,0.,4.8,0.,4.8
1980-11-15 12:34:22.090 ,5,0,0.,4.8,2.,4.8,0.,4.8,0.,4.8
1980-11-15 12:34:26.890 ,5,0,0.,4.8,0.,4.8,0.,4.8,0.,4.8
1980-11-15 12:34:31.690 ,5,0,0.,4.8,0.,4.8,0.,4.8,0.,4.8
1980-11-15 12:34:36.490 ,5,0,0.,4.8,0.,4.8,1.,4.8,1.,4.8
1980-11-15 12:34:41.290 ,5,0,0.,4.8,1.,4.8,0.,4.8,0.,4.8
1980-11-15 12:34:46.090 ,5,0,0.,4.8,0.,4.8,1.,4.8,0.,4.8
1980-11-15 12:34:50.890 ,5,0,0.,4.8,1.,4.8,0.,4.8,0.,4.8
1980-11-15 12:34:55.690 ,5,0,0.,4.8,0.,4.8,0.,4.8,1.,4.8
1980-11-15 12:35:00.490 ,4,0,0.,4.8,0.,4.8,0.,4.8,0.,4.8
1980-11-15 12:35:05.290 ,4,0,0.,4.8,1.,4.8,0.,4.8,0.,4.8
1980-11-15 12:35:10.090 ,4,0,0.,4.8,0.,4.8,0.,4.8,0.,4.8
1980-11-15 12:35:14.890 ,4,0,0.,4.8,0.,4.8,0.,4.8,0.,4.8
1980-11-15 12:35:19.690 ,4,0,0.,4.8,1.,4.8,0.,4.8,0.,4.8
1980-11-15 12:35:24.490 ,4,0,0.,4.8,0.,4.8,0.,4.8,0.,4.8
1980-11-15 12:35:29.290 ,4,0,0.,4.8,0.,4.8,0.,4.8,0.,4.8
1980-11-15 12:35:34.090 ,4,0,0.,4.8,0.,4.8,0.,4.8,0.,4.8
1980-11-15 12:35:38.890 ,4,0,0.,4.8,0.,4.8,0.,4.8,0.,4.8
1980-11-15 12:35:43.690 ,4,0,0.,4.8,0.,4.8,0.,4.8,0.,4.8
1980-11-15 12:35:48.490 ,3,0,0.,4.8,1.,4.8,0.,4.8,0.,4.8
1980-11-15 12:35:53.290 ,3,0,0.,4.8,0.,4.8,0.,4.8,1.,4.8
1980-11-15 12:35:58.090 ,3,0,0.,4.8,0.,4.8,0.,4.8,0.,4.8
1980-11-15 12:36:02.890 ,3,0,0.,4.8,0.,4.8,1.,4.8,0.,4.8
1980-11-15 12:36:07.690 ,3,0,0.,4.8,0.,4.8,0.,4.8,0.,4.8
1980-11-15 12:36:12.490 ,3,0,0.,4.8,0.,4.8,0.,4.8,1.,4.8
1980-11-15 12:36:17.290 ,3,0,0.,4.8,0.,4.8,0.,4.8,1.,4.8
1980-11-15 12:36:22.090 ,3,0,0.,4.8,0.,4.8,1.,4.8,1.,4.8
1980-11-15 12:36:26.890 ,3,0,0.,4.8,0.,4.8,1.,4.8,0.,4.8
1980-11-15 12:36:31.690 ,3,0,0.,4.8,1.,4.8,0.,4.8,0.,4.8
1980-11-15 12:36:36.490 ,2,0,0.,4.8,0.,4.8,0.,4.8,0.,4.8
1980-11-15 12:36:41.290 ,2,0,0.,4.8,1.,4.8,0.,4.8,0.,4.8
1980-11-15 12:36:46.090 ,2,0,0.,4.8,0.,4.8,1.,4.8,0.,4.8
1980-11-15 12:36:50.890 ,2,0,0.,4.8,1.,4.8,0.,4.8,1.,4.8
1980-11-15 12:36:55.690 ,2,0,0.,4.8,1.,4.8,0.,4.8,0.,4.8
1980-11-15 12:37:00.490 ,2,0,0.,4.8,1.,4.8,1.,4.8,0.,4.8
1980-11-15 12:37:05.290 ,2,0,0.,4.8,1.,4.8,0.,4.8,0.,4.8
1980-11-15 12:37:10.090 ,2,0,0.,4.8,1.,4.8,0.,4.8,1.,4.8
1980-11-15 12:37:14.890 ,2,0,0.,4.8,0.,4.8,0.,4.8,0.,4.8
1980-11-15 12:37:19.690 ,2,0,0.,4.8,0.,4.8,0.,4.8,0.,4.8
1980-11-15 12:37:24.490 ,1,0,0.,4.8,1.,4.8,0.,4.8,0.,4.8
1980-11-15 12:37:29.290 ,1,0,0.,4.8,0.,4.8,0.,4.8,0.,4.8
1980-11-15 12:37:34.090 ,1,0,0.,4.8,0.,4.8,0.,4.8,0.,4.8
1980-11-15 12:37:38.890 ,1,0,0.,4.8,0.,4.8,0.,4.8,0.,4.8
1980-11-15 12:37:43.690 ,1,0,0.,4.8,0.,4.8,0.,4.8,0.,4.8
1980-11-15 12:37:48.490 ,1,0,0.,4.8,1.,4.8,1.,4.8,1.,4.8
1980-11-15 12:37:53.290 ,1,0,0.,4.8,0.,4.8,0.,4.8,1.,4.8
1980-11-15 12:37:58.090 ,1,0,0.,4.8,2.,4.8,0.,4.8,0.,4.8
1980-11-15 12:38:02.890 ,1,0,0.,4.8,0.,4.8,3.,4.8,0.,4.8
1980-11-15 12:38:07.690 ,1,0,0.,4.8,1.,4.8,0.,4.8,0.,4.8
1980-11-15 12:38:12.490 ,0,0,0.,4.8,2.,4.8,0.,4.8,0.,4.8
1980-11-15 12:38:17.290 ,0,0,0.,4.8,0.,4.8,1.,4.8,0.,4.8
1980-11-15 12:38:22.090 ,0,0,0.,4.8,2.,4.8,0.,4.8,0.,4.8
1980-11-15 12:38:26.890 ,0,0,0.,4.8,1.,4.8,0.,4.8,0.,4.8
1980-11-15 12:38:31.690 ,0,0,0.,4.8,2.,4.8,1.,4.8,0.,4.8
1980-11-15 12:38:36.490 ,0,0,0.,4.8,1.,4.8,1.,4.8,1.,4.8
1980-11-15 12:38:41.290 ,0,0,0.,4.8,2.,4.8,0.,4.8,0.,4.8
1980-11-15 12:38:46.090 ,0,0,0.,4.8,1.,4.8,0.,4.8,0.,4.8
1980-11-15 12:38:50.890 ,0,0,0.,4.8,1.,4.8,0.,4.8,1.,4.8
1980-11-15 12:38:55.690 ,0,0,0.,4.8,0.,4.8,0.,4.8,1.,4.8
1980-11-15 12:39:00.490 ,0,0,0.,4.8,1.,4.8,0.,4.8,0.,4.8
1980-11-15 12:39:05.290 ,0,0,0.,4.8,0.,4.8,0.,4.8,0.,4.8
1980-11-15 12:39:10.090 ,0,0,0.,4.8,0.,4.8,0.,4.8,0.,4.8
1980-11-15 12:39:14.890 ,0,0,0.,4.8,1.,4.8,0.,4.8,0.,4.8
1980-11-15 12:39:19.690 ,0,0,0.,4.8,2.,4.8,0.,4.8,0.,4.8
1980-11-15 12:39:24.490 ,0,0,0.,4.8,1.,4.8,0.,4.8,0.,4.8
1980-11-15 12:39:29.290 ,0,0,0.,4.8,0.,4.8,0.,4.8,0.,4.8
1980-11-15 12:39:34.090 ,0,0,0.,4.8,2.,4.8,0.,4.8,0.,4.8
1980-11-15 12:39:38.890 ,0,0,0.,4.8,1.,4.8,0.,4.8,0.,4.8
1980-11-15 12:39:43.690 ,0,0,0.,4.8,0.,4.8,0.,4.8,0.,4.8
1980-11-15 12:39:48.490 ,1,0,0.,4.8,1.,4.8,0.,4.8,0.,4.8
1980-11-15 12:39:53.290 ,1,0,0.,4.8,0.,4.8,0.,4.8,0.,4.8
1980-11-15 12:39:58.090 ,1,0,0.,4.8,1.,4.8,1.,4.8,0.,4.8
1980-11-15 12:40:02.890 ,1,0,0.,4.8,1.,4.8,0.,4.8,0.,4.8
1980-11-15 12:40:07.690 ,1,0,0.,4.8,1.,4.8,0.,4.8,0.,4.8
1980-11-15 12:40:12.490 ,1,0,0.,4.8,0.,4.8,1.,4.8,0.,4.8
1980-11-15 12:40:17.290 ,1,0,0.,4.8,1.,4.8,0.,4.8,0.,4.8
1980-11-15 12:40:22.090 ,1,0,0.,4.8,2.,4.8,0.,4.8,0.,4.8
1980-11-15 12:40:26.890 ,1,0,0.,4.8,0.,4.8,2.,4.8,0.,4.8
1980-11-15 12:40:31.690 ,1,0,0.,4.8,1.,4.8,0.,4.8,0.,4.8
1980-11-15 12:40:36.490 ,2,0,0.,4.8,2.,4.8,1.,4.8,0.,4.8
1980-11-15 12:40:41.290 ,2,0,0.,4.8,0.,4.8,0.,4.8,0.,4.8